Thedford, NE

2:23 AM CDT on May 23, 2017 (GMT -0500)
Thedford

Weather History for KTIF - January, 2013

Change the Weather History Date:

Friday, January 18, 2013

  Actual Average (KANW) Record (KANW)
Temperature  
Mean Temperature 40 °F -  
Max Temperature 55 °F 33 °F 59 °F (2006)
Min Temperature 24 °F 13 °F -4 °F (2016)
Degree Days  
Heating Degree Days 26    
Moisture  
Dew Point 19 °F    
Average Humidity 49    
Maximum Humidity 80    
Minimum Humidity 21    
Precipitation  
Precipitation 0.00 in - - ()
Sea Level Pressure  
Sea Level Pressure 29.98 in    
Wind  
Wind Speed 7 mph (West)    
Max Wind Speed 18 mph    
Max Gust Speed 23 mph    
Visibility 10 miles    
Events      
Averages and records for this station are not official NWS values.
T = Trace of Precipitation, MM = Missing Value Source: NWS Daily Summary

Daily Weather History Graph

Daily Weather History Graph

Search for Another Location

Airport or City:

Trip Planner

Search our weather history database for the weather conditions in past years. The results will help you decide how hot, cold, wet, or windy it might be!

Date:

Astronomy

Jan. 18, 2013 Rise Set
Actual Time 8:05 AM CST 5:40 PM CST
Civil Twilight 7:35 AM CST 6:10 PM CST
Nautical Twilight 7:01 AM CST 6:44 PM CST
Astronomical Twilight 6:27 AM CST 7:18 PM CST
Moon 11:37 AM CST (1/18) 12:39 AM CST (1/18)
Length of Visible Light 10h 35m
Length of Day
9h 34m
Waxing Crescent, 47% of the Moon is Illuminated
Jan 18
Waxing Crescent
Jan 18
First Quarter
Jan 26
Full
Feb 3
Last Quarter
Feb 10
New

Hourly Weather History & Observations

Time (CST) Temp. Windchill Dew Point Humidity Pressure Visibility Wind Dir Wind Speed Gust Speed Precip Events Conditions
12:15 AM 30.7 °F - 21.0 °F 67% 30.14 in 10.0 mi Calm Calm - N/A   Clear
12:35 AM 30.2 °F 26.7 °F 21.6 °F 70% 30.13 in 10.0 mi West 3.5 mph - N/A   Clear
12:55 AM 32.0 °F 27.5 °F 21.4 °F 65% 30.13 in 10.0 mi SW 4.6 mph - N/A   Clear
1:15 AM 28.9 °F - 20.5 °F 71% 30.12 in 10.0 mi Calm Calm - N/A   Clear
1:35 AM 24.8 °F - 19.4 °F 80% 30.11 in 10.0 mi Calm Calm - N/A   Clear
1:55 AM 28.4 °F 24.6 °F 20.8 °F 73% 30.09 in 10.0 mi SW 3.5 mph - N/A   Clear
2:15 AM 31.6 °F 24.4 °F 22.8 °F 70% 30.08 in 10.0 mi SW 8.1 mph - N/A   Clear
2:35 AM 31.5 °F - 22.1 °F 68% 30.08 in 10.0 mi Calm Calm - N/A   Clear
2:55 AM 27.5 °F - 20.7 °F 75% 30.07 in 10.0 mi Calm Calm - N/A   Clear
3:15 AM 29.8 °F 24.9 °F 22.1 °F 73% 30.07 in 10.0 mi SW 4.6 mph - N/A   Clear
3:35 AM 30.7 °F 24.9 °F 22.1 °F 70% 30.05 in 10.0 mi SW 5.8 mph - N/A   Clear
3:55 AM 32.4 °F 23.0 °F 21.9 °F 65% 30.03 in 10.0 mi WSW 12.7 mph - N/A   Clear
4:15 AM 32.7 °F 24.5 °F 21.0 °F 62% 30.03 in 10.0 mi West 10.4 mph - N/A   Clear
4:35 AM 29.5 °F 22.5 °F 20.3 °F 69% 30.03 in 10.0 mi West 6.9 mph - N/A   Clear
4:55 AM 30.9 °F 22.2 °F 20.1 °F 64% 30.02 in 10.0 mi West 10.4 mph - N/A   Clear
5:15 AM 32.0 °F 23.6 °F 19.9 °F 61% 30.01 in 10.0 mi West 10.4 mph - N/A   Clear
5:35 AM 32.0 °F 23.0 °F 19.4 °F 60% 30.01 in 10.0 mi West 11.5 mph - N/A   Clear
5:55 AM 31.5 °F 24.9 °F 18.9 °F 60% 30.00 in 10.0 mi West 6.9 mph 16.1 mph N/A   Clear
6:15 AM 30.0 °F 21.7 °F 18.5 °F 62% 30.00 in 10.0 mi West 9.2 mph - N/A   Clear
6:35 AM 30.0 °F 23.2 °F 18.3 °F 62% 30.00 in 10.0 mi West 6.9 mph - N/A   Clear
6:55 AM 30.7 °F 22.6 °F 18.1 °F 60% 30.00 in 10.0 mi West 9.2 mph - N/A   Clear
7:15 AM 30.2 °F 21.3 °F 18.1 °F 61% 30.00 in 10.0 mi West 10.4 mph - N/A   Clear
7:35 AM 29.8 °F 26.3 °F 17.6 °F 60% 29.99 in 10.0 mi WNW 3.5 mph - N/A   Clear
7:55 AM 28.0 °F 20.0 °F 17.8 °F 65% 29.99 in 10.0 mi West 8.1 mph - N/A   Clear
8:35 AM 31.1 °F 24.5 °F 17.6 °F 57% 29.99 in 10.0 mi West 6.9 mph - N/A   Clear
8:55 AM 32.4 °F 24.0 °F 18.5 °F 57% 29.99 in 10.0 mi West 10.4 mph - N/A   Clear
9:15 AM 35.6 °F 27.5 °F 18.5 °F 50% 30.00 in 10.0 mi West 11.5 mph - N/A   Clear
9:35 AM 37.8 °F 31.3 °F 18.9 °F 47% 30.01 in 10.0 mi West 9.2 mph - N/A   Clear
9:55 AM 39.0 °F 31.8 °F 18.3 °F 43% 30.01 in 10.0 mi West 11.5 mph - N/A   Clear
10:15 AM 41.0 °F 34.7 °F 17.2 °F 38% 30.01 in 10.0 mi WNW 10.4 mph - N/A   Clear
10:35 AM 42.3 °F 34.4 °F 17.2 °F 37% 30.02 in 10.0 mi WNW 16.1 mph 21.9 mph N/A   Clear
10:55 AM 43.5 °F 36.4 °F 16.5 °F 34% 30.02 in 10.0 mi WNW 15.0 mph 23.0 mph N/A   Clear
11:15 AM 46.2 °F 40.5 °F 16.9 °F 31% 30.02 in 10.0 mi WNW 12.7 mph - N/A   Clear
11:35 AM 47.8 °F - 16.9 °F 29% 30.01 in 10.0 mi WNW 15.0 mph - N/A   Clear
11:55 AM 49.6 °F - 17.6 °F 28% 30.00 in 10.0 mi WNW 11.5 mph - N/A   Clear
12:15 PM 51.6 °F - 18.1 °F 27% 29.99 in 10.0 mi WNW 11.5 mph - N/A   Clear
12:35 PM 52.5 °F - 17.6 °F 25% 29.97 in 10.0 mi WNW 10.4 mph - N/A   Clear
12:55 PM 54.5 °F - 17.6 °F 23% 29.96 in 10.0 mi WNW 12.7 mph - N/A   Clear
1:15 PM 54.9 °F - 17.1 °F 23% 29.96 in 10.0 mi WNW 12.7 mph - N/A   Clear
1:35 PM 55.4 °F - 17.6 °F 23% 29.95 in 10.0 mi West 16.1 mph - N/A   Clear
1:55 PM 55.4 °F - 17.8 °F 23% 29.95 in 10.0 mi West 16.1 mph 20.7 mph N/A   Clear
2:15 PM 55.8 °F - 15.6 °F 21% 29.95 in 10.0 mi WNW 10.4 mph 20.7 mph N/A   Clear
2:35 PM 55.8 °F - 15.8 °F 21% 29.94 in 10.0 mi West 15.0 mph - N/A   Clear
2:55 PM 55.6 °F - 15.8 °F 21% 29.94 in 10.0 mi West 15.0 mph 19.6 mph N/A   Clear
3:15 PM 55.0 °F - 17.6 °F 23% 29.94 in 10.0 mi West 18.4 mph - N/A   Clear
3:35 PM 55.0 °F - 17.4 °F 23% 29.94 in 10.0 mi West 16.1 mph 20.7 mph N/A   Clear
3:55 PM 54.5 °F - 16.2 °F 22% 29.93 in 10.0 mi West 16.1 mph - N/A   Clear
4:15 PM 54.1 °F - 15.8 °F 22% 29.93 in 10.0 mi West 10.4 mph - N/A   Clear
4:35 PM 53.6 °F - 16.7 °F 23% 29.93 in 10.0 mi West 8.1 mph - N/A   Clear
4:55 PM 51.8 °F - 17.2 °F 26% 29.94 in 10.0 mi West 6.9 mph - N/A   Clear
5:15 PM 50.0 °F - 18.5 °F 29% 29.93 in 10.0 mi West 6.9 mph - N/A   Clear
5:35 PM 46.6 °F - 18.5 °F 33% 29.94 in 10.0 mi West 8.1 mph - N/A   Clear
5:55 PM 43.2 °F 39.7 °F 19.0 °F 38% 29.93 in 10.0 mi WSW 5.8 mph - N/A   Clear
6:15 PM 40.8 °F 36.9 °F 19.4 °F 42% 29.93 in 10.0 mi SW 5.8 mph - N/A   Clear
6:35 PM 38.7 °F 33.6 °F 20.1 °F 47% 29.93 in 10.0 mi SW 6.9 mph - N/A   Clear
6:55 PM 37.4 °F 33.8 °F 20.7 °F 51% 29.93 in 10.0 mi SW 4.6 mph - N/A   Clear
7:15 PM 38.7 °F - 20.7 °F 48% 29.93 in 10.0 mi Calm Calm - N/A   Clear
7:35 PM 38.5 °F - 20.7 °F 49% 29.93 in 10.0 mi Calm Calm - N/A   Clear
7:55 PM 36.1 °F - 21.0 °F 54% 29.93 in 10.0 mi Calm Calm - N/A   Clear
8:15 PM 35.2 °F 31.2 °F 21.0 °F 56% 29.92 in 10.0 mi WSW 4.6 mph - N/A   Clear
8:35 PM 35.8 °F 33.0 °F 21.2 °F 55% 29.93 in 10.0 mi WNW 3.5 mph - N/A   Clear
8:55 PM 33.8 °F - 21.2 °F 60% 29.93 in 10.0 mi Calm Calm - N/A   Clear
9:15 PM 34.5 °F - 21.6 °F 59% 29.92 in 10.0 mi Calm Calm - N/A   Clear
9:35 PM 34.5 °F 31.6 °F 21.2 °F 58% 29.91 in 10.0 mi WSW 3.5 mph - N/A   Clear
9:55 PM 36.3 °F - 21.4 °F 55% 29.91 in 10.0 mi Calm Calm - N/A   Clear
10:15 PM 37.6 °F 33.1 °F 22.1 °F 54% 29.91 in 10.0 mi West 5.8 mph - N/A   Clear
10:35 PM 36.5 °F 31.0 °F 22.5 °F 57% 29.91 in 10.0 mi West 6.9 mph - N/A   Clear
10:55 PM 37.6 °F 30.5 °F 22.6 °F 55% 29.90 in 10.0 mi West 10.4 mph - N/A   Clear
11:15 PM 38.7 °F 31.8 °F 22.1 °F 51% 29.90 in 10.0 mi WNW 10.4 mph - N/A   Clear
11:35 PM 37.6 °F 30.0 °F 22.1 °F 54% 29.90 in 10.0 mi West 11.5 mph - N/A   Clear
11:55 PM 36.5 °F 29.7 °F 22.1 °F 56% 29.90 in 10.0 mi WNW 9.2 mph - N/A   Clear